Location: Unspecified
(41.1850°N, 73.2650°W)
Time: 13:57:25
(UTC+00:00)

SL-08 R/B - Pass Details

Date: 22 March 2026
Orbit: 946 x 992 km, 83.0° (Epoch: 18 April)

Event Time Altitude Azimuth Distance (km) Brightness Sun altitude
Rises 01:28:49 0° 202° (SSW) 3,608 7.4 -26.6°
Reaches altitude 10° 01:31:23 10° 207° (SSW) 2,663 6.8 -27.1°
Maximum altitude 01:37:15 49° 282° (WNW) 1,201 5.2 -28.0°
Drops below altitude 10° 01:43:09 10° 357° (N) 2,676 7.2 -29.0°
Sets 01:45:45 0° 3° (N) 3,627 7.8 -29.4°
